Presure
96 106 104 114 93 96 98 98 141 86 87 93 95 104 99 96 76 77 76 90 86 111 73 72 79 139 144 149 77 93 203 210 116
90 94 121 148 94 80 89 74 71 71 90 85 88 83 76 72 90 84 88 88 80 74 105 190 118 151 154 173 144 132 181 171 192
119 144 133 144 125 71 93 81 131 149 106 137 193 117 72 76 99 99 90 89 93 130 148 126 154 169 172 167 170 164 160 163 161
105 75 76 71 81 84 215 103 87 86 76 90 86 104 124 125 100 100 125 188 154 162 240 248 249 218 240 181 220 230 230 224 188
71 65 78 78 76 84 88 89 90 90 156 95 95 102 204 215 226 218 235 166 247 237 237 238 208 163 220 151 153 165 128 136 130
80 80 78 83 110 89 89 94 92 96 127 200 192 201 203 240 220 219 246 154 163 202 143 142 141 168 143 133 132 131 126 140 141
79 81 84 144 88 162 110 148 181 191 168 120 207 198 194 143 226 219 142 132 128 135 135 143 163 227 199 143 140 142 139 136 140
99 84 87 170 202 169 192 152 135 212 201 142 134 132 223 134 151 135 129 128 133 206 238 148 167 141 136 136 139 156 228 230 136
95 186 146 195 203 176 149 134 131 163 127 193 212 176 158 139 141 218 127 232 224 139 136 144 133 143 144 146 258 211 208 208 220
194 153 158 198 131 134 207 170 165 142 134 201 125 179 216 213 232 220 217 227 223 228 222 210 213 208 228 245 241 247 216 256 255
188 181 142 121 119 119 174 165 186 193 188 195 200 208 206 210 221 232 232 218 223 217 226 208 201 218 229 206 218 214 240 238 229
184 160 130 178 194 198 197 184 190 195 189 192 205 201 202 211 242 231 218 208 216 217 218 211 200 235 221 228 199 195 196 227 233
191 117 187 192 190 195 182 186 193 191 189 199 205 199 216 249 239 229 220 225 211 213 209 218 232 230 228 227 220 217 215 215 215
155 192 189 189 191 183 184 188 191 186 201 219 225 234 249 257 237 226 223 230 209 208 205 212 236 226 196 213 216 208 211 208 209
192 187 190 188 181 183 186 193 195 210 226 250 267 272 263 255 239 230 228 228 206 208 209 201 196 218 210 200 211 208 200 196 198
188 185 185 174 183 187 190 200 217 261 272 292 285 278 267 259 247 240 238 227 203 213 210 206 195 212 217 209 204 203 202 200 197
187 180 180 181 199 193 205 226 278 314 200 261 304 305 251 268 258 252 243 231 223 213 199 211 201 189 213 214 204 196 187 201 201
183 188 179 195 197 205 240 318 331 324 319 314 313 304 278 285 269 255 251 241 226 216 211 207 199 185 191 217 215 199 203 188 197
175 185 193 201 207 238 348 345 342 265 291 277 255 246 245 289 275 269 259 248 232 219 211 210 198 198 191 186 220 219 196 199 196
187 195 196 213 300 359 338 291 305 248 237 238 295 290 283 240 283 270 265 255 243 228 208 203 189 188 188 176 190 222 184 191 194
Wind_Speed
24 33 31 32 26 28 30 32 39 25 26 32 35 42 39 38 33 34 37 44 45 47 34 33 41 49 51 54 38 32 61 62 53
22 25 36 41 28 16 20 18 19 21 36 33 36 32 30 32 40 37 44 47 42 40 49 60 57 57 57 57 55 54 61 62 64
32 39 40 42 39 21 33 29 46 39 36 37 51 44 37 39 43 50 54 54 57 57 57 57 57 58 59 58 59 61 62 61 61
32 18 21 17 32 35 49 42 40 40 34 44 46 51 50 52 57 58 59 58 56 57 63 65 66 65 68 61 70 74 76 75 66
20 20 33 35 27 41 44 45 48 47 58 50 54 57 58 57 54 56 55 56 56 57 58 58 60 59 62 59 60 60 58 62 62
36 38 35 45 49 53 53 56 52 55 52 49 56 55 61 49 55 57 47 60 58 55 59 59 59 59 62 62 62 62 61 66 67
42 46 51 57 58 59 61 52 54 51 57 35 44 53 51 61 47 46 62 63 64 65 64 65 61 53 57 66 67 68 69 68 69
56 56 59 60 63 53 59 53 61 52 50 65 68 67 47 68 63 66 67 68 66 49 42 68 64 70 69 69 71 68 41 42 70
59 64 50 65 64 58 54 59 66 60 74 60 58 60 64 70 67 43 71 33 34 72 72 68 68 71 70 71 24 48 51 49 43
68 56 58 67 56 58 62 63 62 68 63 57 76 66 56 50 49 44 41 35 34 32 35 41 39 43 36 27 27 22 39 18 19
68 68 55 62 67 70 66 64 63 67 67 62 63 65 61 57 51 48 42 38 35 34 30 34 40 35 30 39 33 35 21 25 33
71 62 59 66 67 68 67 64 65 68 64 68 70 63 65 64 52 49 45 43 38 36 33 34 41 26 32 27 40 44 44 26 22
69 65 69 69 69 70 67 67 70 68 67 72 74 67 67 51 53 50 47 42 39 37 36 36 34 31 28 26 28 28 27 28 30
67 70 70 71 72 70 70 73 73 70 77 79 76 72 63 48 50 51 49 46 40 38 39 36 32 32 39 34 31 34 32 32 31
70 72 72 72 71 72 74 76 77 82 83 78 69 61 55 51 50 50 50 48 42 41 39 41 41 36 38 40 38 38 42 44 41
72 73 73 70 74 76 76 78 85 83 79 65 59 55 52 52 50 49 51 50 44 44 42 41 42 39 41 40 41 41 42 44 44
74 74 74 75 79 78 80 89 85 70 60 58 51 48 50 50 53 51 53 53 49 46 47 44 43 46 43 45 45 46 48 46 47
76 78 76 79 81 81 87 76 63 58 51 48 45 45 48 50 54 55 54 55 51 47 45 45 45 46 45 47 50 47 49 51 50
73 78 80 83 84 85 66 56 51 51 46 46 44 44 45 48 53 56 55 54 52 46 46 46 45 47 48 49 52 55 52 54 55
81 83 83 88 80 58 52 50 44 40 42 41 42 41 41 39 50 54 51 52 50 49 45 47 48 50 51 54 56 58 55 56 57
Wind_Direction
289 289 289 289 294 293 294 296 284 296 302 300 297 291 291 292 291 291 294 296 293 287 296 301 292 270 273 272 289 283 263 263 275
285 285 290 296 289 315 301 288 287 290 305 304 303 287 282 291 280 290 296 291 290 289 279 272 284 270 270 267 269 270 267 266 264
293 292 294 295 296 293 289 293 293 300 301 290 291 293 283 282 284 291 289 289 288 279 277 279 271 268 269 266 267 269 265 264 263
291 297 305 301 302 300 311 296 295 295 297 296 295 290 280 280 287 284 284 279 279 274 272 269 268 269 266 267 265 265 265 263 262
307 306 305 308 299 303 297 296 296 299 292 297 293 289 291 292 289 286 281 274 273 272 271 269 269 269 267 267 266 266 274 270 272
305 302 302 299 299 299 299 298 298 296 297 299 294 296 294 297 292 291 278 276 276 275 275 274 274 269 269 275 276 275 277 270 269
305 303 301 305 301 306 303 287 298 297 290 293 295 291 293 283 289 288 279 283 285 283 282 276 274 267 269 270 271 270 272 273 272
297 299 299 304 311 298 306 288 283 306 301 286 288 289 311 286 286 282 283 284 285 274 269 281 275 277 280 278 276 275 267 266 275
296 305 291 310 309 300 286 277 280 295 290 310 314 304 300 291 290 303 287 292 277 276 277 278 284 278 277 275 267 269 272 270 265
305 295 297 309 284 283 309 298 297 290 299 312 291 301 312 307 311 304 296 298 289 291 276 267 270 270 269 267 269 269 273 268 267
304 303 292 285 284 288 302 302 310 313 311 312 312 312 309 308 305 306 302 293 291 281 280 273 270 277 272 266 268 267 264 264 265
302 301 286 300 308 309 309 309 311 312 309 310 310 307 306 306 300 299 297 290 290 286 283 272 267 273 273 266 266 267 268 260 261
303 284 305 306 308 308 310 310 310 308 307 308 306 304 302 293 291 291 292 286 285 285 280 286 279 270 264 262 263 260 261 264 263
291 302 305 306 307 309 309 309 308 306 306 305 302 299 296 285 284 286 285 280 278 278 276 279 270 265 273 267 260 260 256 257 259
300 304 304 305 308 308 309 307 306 305 304 300 298 293 287 280 278 277 275 273 275 273 271 270 270 272 271 271 264 260 262 262 262
301 303 304 308 307 307 306 306 307 302 299 298 291 284 278 274 272 267 263 267 273 270 270 269 266 276 270 269 267 266 266 265 263
300 303 304 305 306 305 307 308 303 302 296 296 286 272 276 263 262 260 257 261 263 266 270 270 268 268 273 269 269 268 269 269 268
302 303 305 306 305 307 308 304 301 297 293 288 281 272 269 257 256 259 256 256 262 265 266 268 267 270 274 275 269 274 270 271 271
303 304 305 305 307 307 303 301 297 301 298 294 292 288 285 260 257 255 257 257 261 268 268 268 269 272 272 274 277 271 274 274 273
303 304 305 308 304 301 300 303 303 303 304 302 288 283 277 284 259 262 260 259 259 263 270 272 274 273 273 270 274 276 272 274 276